[[{"header":{"parameterUnit":"m.s-1","parameterCategory":2,"la1":30.2991,"la2":30.254,"lo1":-89.0895,"lo2":-89.0444,"dy":0.0017,"dx":0.0017,"nx":28,"ny":28,"refTime":"2023-08-01T21:00:00:Z","depth":"0","parameterNumber":2,"parameterNumberName":"U-component_of_CURRENTS"},"data":[0,0,0,0,0,0,0,0,0,0,0,0,0,0,0,0,0,0,0,0,0,0,0,0,0,0,0,0,0,0,0,0,0,0,0,0,0,0,0,0,0,0,0,0,0,0,0,0,0,0,0,0,0,0,0,0,0,0,0.0898,0.0899,0,0.0969,0.097,0.0971,0.0987,0.0987,0.0986,0.0986,0.1037,0.1038,0.104,0,0,0,0,0,0,0,0,0,0,0,0,0,0.0835,0.0836,0.0898,0.0899,0.09,0.0969,0.097,0.0971,0.0987,0.0987,0.0986,0.0986,0.1036,0.1038,0.104,0,0,0,0,0,0,0,0,0,0,0,0,0,0.0881,0.0836,0.0898,0.0916,0.0918,0.0969,0.097,0.0971,0.0988,0.0987,0.0986,0.0985,0.1035,0.1038,0.1041,0.1074,0,0,0.1049,0.105,0,0,0,0,0,0,0,0,0.0878,0.0883,0.0913,0.0915,0.0917,0.0968,0.0966,0.1004,0.0988,0.0962,0.0986,0.0985,0.1012,0.1017,0.1033,0.1076,0.1079,0.105,0.1051,0.1052,0.1053,0,0,0,0,0,0,0,0.0875,0.088,0.0927,0.0914,0.0917,0.094,0.0945,0.0974,0.0991,0.0964,0.0965,0.0972,0.1013,0.103,0.1034,0.1079,0.1049,0.1052,0.1054,0.1055,0.1183,0.1184,0,0,0,0,0,0,0.0863,0.0877,0.0925,0.0929,0.0895,0.0942,0.0947,0.0953,0.0991,0.0996,0.0973,0.0973,0.1026,0.1031,0.1036,0.1124,0.1052,0.1055,0.1057,0.1181,0.1183,0.1185,0,0,0,0,0,0,0.0861,0.0866,0.0922,0.0904,0.0913,0.0943,0.095,0.0955,0.0977,0.0998,0.1002,0.099,0.1026,0.1032,0.1079,0.1124,0.1056,0.1059,0.1179,0.1182,0.1184,0.127,0,0,0,0,0,0,0.0859,0.0865,0.0873,0.0903,0.0913,0.0964,0.0951,0.0957,0.0982,0.0983,0.1014,0.1018,0.1025,0.1075,0.1082,0.1127,0.1061,0.1177,0.118,0.1183,0.1265,0.1275,0.1284,0,0,0,0,0,0.0856,0.0877,0.0873,0.0879,0.092,0.0965,0.0973,0.0992,0.0984,0.1007,0.1028,0.1017,0.11,0.1079,0.1087,0.1133,0.1175,0.1179,0.1183,0.1261,0.1273,0.1284,0,0,0,0,0,0,0.0851,0.0881,0.0877,0.0903,0.0933,0.0968,0.0996,0.0999,0.1034,0.1037,0.1044,0.1051,0.1109,0.1107,0.1083,0.1178,0.1134,0.114,0.1191,0.1203,0.1212,0.132,0.1063,0,0,0,0,0,0.0851,0.0882,0.0902,0.0929,0.0943,0.0968,0.0989,0.1001,0.1032,0.1046,0.1064,0.109,0.1132,0.1153,0.1182,0.1237,0.1337,0.1269,0.1278,0.1286,0.1379,0.1569,0.1607,0.1198,0.1198,0.1197,0,0,0.0857,0.088,0.0895,0.0931,0.0957,0.1009,0.098,0.1022,0.1076,0.1047,0.1122,0.1124,0.1152,0.1217,0.1242,0.1222,0.1445,0.1291,0.1298,0.1389,0.1578,0.1619,0.1655,0.12,0.12,0.1199,0,0,0.0909,0.0904,0.0955,0.0982,0.1023,0.1043,0.1054,0.1089,0.1115,0.1176,0.1175,0.1237,0.1259,0.1327,0.1354,0.1442,0.1487,0.1397,0.1543,0.1723,0.1761,0.1796,0.1941,0.1988,0.1404,0.1404,0.1405,0,0.0916,0.0986,0.0978,0.1035,0.1075,0.1062,0.1133,0.1161,0.1208,0.1263,0.1211,0.1346,0.1346,0.1496,0.1515,0.1476,0.1563,0.1492,0.1744,0.178,0.1814,0.1956,0.2007,0.1409,0.1409,0.1408,0.1408,0,0.1013,0.1068,0.1102,0.1175,0.1205,0.1266,0.1292,0.1334,0.1346,0.139,0.1516,0.154,0.1645,0.1616,0.1595,0.1815,0.1791,0.1732,0.1727,0.1862,0.1999,0.2051,0.1416,0.1414,0.1413,0.1411,0,0,0.1057,0.1155,0.1172,0.1237,0.1289,0.1334,0.1416,0.152,0.1614,0.165,0.1812,0.1874,0.19,0.1941,0.1919,0.2057,0.2328,0.1999,0.2006,0.2168,0.2722,0.2649,0.2697,0.2302,0.2312,0.232,0.271,0,0.1155,0.1298,0.1311,0.1449,0.1533,0.1537,0.1623,0.1699,0.1759,0.1897,0.1974,0.2099,0.2016,0.2072,0.2212,0.2291,0.2475,0.223,0.255,0.2562,0.2502,0.276,0.275,0.3094,0.276,0.2769,0.2775,0,0.1283,0.1359,0.1514,0.1628,0.1659,0.1719,0.1867,0.1938,0.2097,0.2153,0.2306,0.2352,0.2574,0.2466,0.2796,0.2632,0.2738,0.2793,0.2807,0.2774,0.259,0.2911,0.32,0.308,0.2855,0.2849,0.2843,0,0.1405,0.1517,0.1654,0.1692,0.1799,0.1863,0.1908,0.2033,0.2136,0.2343,0.2466,0.268,0.2831,0.3002,0.3091,0.2984,0.3437,0.3297,0.336,0.3352,0.3438,0.3421,0.3691,0.3637,0.3636,0.3635,0.3634,0,0.1564,0.1676,0.1712,0.1806,0.1938,0.1954,0.2117,0.2195,0.235,0.2509,0.2622,0.281,0.2982,0.3202,0.3258,0.3485,0.3598,0.351,0.3504,0.3453,0.3434,0.3399,0.3323,0.365,0.3646,0.3644,0.3641,0,0.1743,0.1777,0.1937,0.2017,0.2029,0.2127,0.2215,0.2334,0.2457,0.2682,0.2771,0.3019,0.329,0.3436,0.3728,0.3723,0.3835,0.3955,0.3858,0.3833,0.3708,0.3635,0.3836,0.372,0.4139,0.414,0.4142,0,0.1867,0.1972,0.2081,0.2132,0.2173,0.2262,0.2329,0.241,0.2514,0.2785,0.2918,0.3246,0.3433,0.3827,0.3944,0.4142,0.3965,0.4209,0.4021,0.3823,0.374,0.3502,0.3368,0.4166,0.4168,0.4169,0.417,0,0.207,0.2109,0.2202,0.2301,0.2369,0.244,0.251,0.2592,0.2697,0.2868,0.3069,0.3235,0.3636,0.3827,0.409,0.4197,0.4023,0.423,0.4121,0.3922,0.3607,0.3444,0.373,0.4179,0.4178,0.4177,0.4177,0.4176,0.2181,0.2258,0.2333,0.2432,0.2504,0.2544,0.2559,0.262,0.2739,0.2876,0.3077,0.325,0.3631,0.4,0.4099,0.4239,0.4096,0.4162,0.4139,0.3947,0.3709,0.3981,0.4317,0.4317,0.4316,0.4316,0.4316,0,0.2247,0.2304,0.2421,0.2492,0.2554,0.2572,0.2619,0.2587,0.2627,0.2807,0.2924,0.3264,0.3554,0.3844,0.4173,0.4148,0.3964,0.407,0.3792,0.3694,0.4095,0.3959,0.4117,0.4118,0.4118,0.4118,0.4118,0.4118,0.2269,0.2345,0.2396,0.247,0.2513,0.2483,0.2467,0.2446,0.2501,0.2608,0.2742,0.2931,0.3398,0.3923,0.4102,0.4064,0.3757,0.368,0.3523,0.3851,0.3855,0.3859,0.3714,0.3818,0.3818,0.301,0.3005,0.3001]},{"header":{"parameterUnit":"m.s-1","parameterCategory":2,"la1":30.2991,"la2":30.254,"lo1":-89.0895,"lo2":-89.0444,"dy":0.0017,"dx":0.0017,"nx":28,"ny":28,"refTime":"2023-08-01T21:00:00:Z","depth":"0","parameterNumber":3,"parameterNumberName":"V-component_of_CURRENTS"},"data":[0,0,0,0,0,0,0,0,0,0,0,0,0,0,0,0,0,0,0,0,0,0,0,0,0,0,0,0,0,0,0,0,0,0,0,0,0,0,0,0,0,0,0,0,0,0,0,0,0,0,0,0,0,0,0,0,0,0,0.0576,0.0575,0,0.0543,0.0543,0.0543,0.0567,0.0568,0.0569,0.0569,0.0536,0.0535,0.0534,0,0,0,0,0,0,0,0,0,0,0,0,0,0.0439,0.0444,0.0576,0.0575,0.0574,0.0543,0.0543,0.0543,0.0567,0.0568,0.0569,0.057,0.0537,0.0535,0.0533,0,0,0,0,0,0,0,0,0,0,0,0,0,0.0467,0.0445,0.0576,0.0579,0.0578,0.0543,0.0543,0.0543,0.0567,0.0568,0.0569,0.057,0.0537,0.0535,0.0533,0.0502,0,0,0.0527,0.0526,0,0,0,0,0,0,0,0,0.0466,0.0473,0.0579,0.0578,0.0578,0.0556,0.0483,0.0528,0.0567,0.0577,0.0569,0.057,0.0539,0.0537,0.0536,0.05,0.0499,0.0526,0.0525,0.0524,0.0524,0,0,0,0,0,0,0,0.0464,0.0473,0.0568,0.0578,0.0577,0.0506,0.0513,0.0491,0.0557,0.0576,0.0576,0.0564,0.0539,0.0538,0.0535,0.0498,0.0527,0.0525,0.0523,0.0522,0.0405,0.0403,0,0,0,0,0,0,0.047,0.0473,0.0569,0.0566,0.0517,0.0508,0.0517,0.0566,0.0557,0.0555,0.0564,0.0566,0.0541,0.0538,0.0534,0.0525,0.0524,0.0522,0.0521,0.0407,0.0404,0.0402,0,0,0,0,0,0,0.0468,0.0481,0.057,0.051,0.0516,0.0511,0.0565,0.0565,0.0566,0.0547,0.0547,0.0564,0.0542,0.0537,0.0505,0.0523,0.0521,0.0519,0.0409,0.0406,0.0403,0.0488,0,0,0,0,0,0,0.0466,0.0483,0.0528,0.0514,0.052,0.0553,0.0563,0.0563,0.0554,0.0557,0.0547,0.0545,0.0542,0.0508,0.0503,0.052,0.0518,0.0411,0.0408,0.0404,0.0487,0.0488,0.0489,0,0,0,0,0,0.0462,0.0482,0.0532,0.0542,0.0583,0.0552,0.0549,0.0548,0.0554,0.0553,0.0537,0.0546,0.0482,0.0505,0.0499,0.0516,0.0413,0.0409,0.0405,0.0487,0.0488,0.0489,0,0,0,0,0,0,0.0418,0.0486,0.054,0.058,0.0582,0.0555,0.0536,0.0545,0.0533,0.0534,0.0526,0.0521,0.05,0.0475,0.05,0.0462,0.0447,0.0441,0.0511,0.0512,0.0513,0.0632,0.0516,0,0,0,0,0,0.0443,0.0505,0.0529,0.0564,0.0559,0.0558,0.0547,0.0554,0.0532,0.053,0.0516,0.0492,0.0475,0.0469,0.044,0.0422,0.0442,0.042,0.0421,0.0423,0.0509,0.0538,0.0553,0.0389,0.0389,0.0389,0,0,0.0424,0.0478,0.0506,0.0562,0.0558,0.0573,0.0554,0.0533,0.0568,0.0524,0.0537,0.0492,0.0464,0.045,0.0438,0.0438,0.0458,0.0418,0.042,0.0508,0.0536,0.0553,0.0569,0.0386,0.0387,0.0387,0,0,0.0409,0.0474,0.0522,0.0534,0.0552,0.0558,0.0556,0.054,0.0556,0.0555,0.0532,0.0517,0.0464,0.0479,0.0475,0.0459,0.0457,0.0404,0.0526,0.055,0.0567,0.0583,0.0562,0.0575,0.0413,0.0413,0.0414,0,0.0405,0.0498,0.0512,0.0551,0.0572,0.0559,0.0594,0.0598,0.058,0.062,0.0568,0.0557,0.0509,0.0563,0.0547,0.0479,0.0466,0.0533,0.0562,0.0578,0.0593,0.0568,0.0582,0.0417,0.0417,0.0416,0.0416,0,0.0434,0.0509,0.0506,0.0608,0.0611,0.0624,0.0641,0.0664,0.067,0.0696,0.0731,0.0671,0.0701,0.0633,0.0592,0.0659,0.0602,0.0559,0.0586,0.0617,0.0584,0.0598,0.0422,0.0421,0.042,0.0419,0,0,0.0469,0.0536,0.0547,0.0636,0.0659,0.0687,0.0726,0.0806,0.0909,0.0861,0.0994,0.0913,0.0912,0.0907,0.0838,0.0839,0.0872,0.0748,0.0748,0.0776,0.0894,0.0808,0.0813,0.0826,0.083,0.0834,0.0808,0,0.0526,0.0648,0.0636,0.075,0.0832,0.0829,0.0896,0.0958,0.1,0.1111,0.1087,0.1157,0.1007,0.104,0.1018,0.0916,0.0921,0.0883,0.0823,0.0822,0.0783,0.0832,0.0836,0.0812,0.0821,0.0823,0.0825,0,0.0616,0.0705,0.0824,0.0954,0.0978,0.1024,0.1194,0.1245,0.1361,0.1398,0.1458,0.1447,0.1464,0.1337,0.1238,0.121,0.1097,0.0996,0.0991,0.0925,0.0765,0.079,0.0836,0.0504,0.0845,0.0843,0.0842,0,0.0786,0.0859,0.0989,0.1021,0.1125,0.1192,0.1251,0.1359,0.1468,0.1617,0.1731,0.1717,0.1772,0.1619,0.1378,0.1331,0.1253,0.1161,0.0987,0.0975,0.0987,0.0971,0.077,0.1165,0.1165,0.1165,0.1165,0,0.0949,0.1069,0.1083,0.1192,0.1332,0.1353,0.1536,0.1601,0.1757,0.1932,0.1912,0.2066,0.1855,0.1768,0.1503,0.1272,0.1349,0.1067,0.0998,0.0998,0.0984,0.0701,0.0567,0.1164,0.1164,0.1164,0.1164,0,0.1191,0.1187,0.1358,0.1441,0.1439,0.1572,0.1683,0.1846,0.196,0.2201,0.2274,0.2359,0.2258,0.1974,0.1742,0.1472,0.1071,0.1128,0.1112,0.1044,0.0575,0.0448,0.0338,0.0217,0.0975,0.0973,0.0971,0,0.1339,0.1449,0.1534,0.1582,0.1621,0.1751,0.1844,0.1947,0.2112,0.2378,0.2529,0.2568,0.262,0.2217,0.1742,0.1298,0.1053,0.1028,0.0966,0.06,0.0407,0.0335,0.0237,0.0974,0.0972,0.0971,0.097,0,0.1596,0.1617,0.1728,0.182,0.1897,0.2007,0.2149,0.2295,0.246,0.2648,0.2889,0.2971,0.2691,0.23,0.1718,0.1403,0.0834,0.0993,0.0653,0.0458,0.0341,0.0173,0.0883,0.0961,0.0962,0.0962,0.0963,0.0963,0.1733,0.1836,0.191,0.2007,0.2108,0.2242,0.2359,0.252,0.2739,0.2996,0.309,0.317,0.2698,0.1944,0.1525,0.069,0.0756,0.044,0.0332,0.0303,0.0157,0.0822,0.0786,0.0786,0.0786,0.0786,0.0786,0,0.1807,0.1895,0.2048,0.2152,0.2311,0.2318,0.2527,0.2647,0.2862,0.3061,0.322,0.2939,0.2319,0.1652,0.0609,0.0085,-0.006,-0.021,-0.0317,-0.0373,0.0247,0.0207,-0.0002,-0.0002,-0.0001,-0.0001,-0.0001,-0.0,0.1834,0.1938,0.2025,0.2241,0.2355,0.2525,0.2639,0.2811,0.2953,0.3067,0.3017,0.3024,0.2443,0.0819,-0.035,-0.0594,-0.096,-0.0985,-0.1195,-0.0832,-0.0781,-0.0732,-0.0808,-0.1227,-0.1228,-0.1752,-0.1757,-0.1762]}],[{"header":{"parameterUnit":"m.s-1","parameterCategory":2,"la1":30.2991,"la2":30.254,"lo1":-89.0895,"lo2":-89.0444,"dy":0.0017,"dx":0.0017,"nx":28,"ny":28,"refTime":"2023-08-01T21:00:00:Z","depth":"2","parameterNumber":2,"parameterNumberName":"U-component_of_CURRENTS"},"data":[0,0,0,0,0,0,0,0,0,0,0,0,0,0,0,0,0,0,0,0,0,0,0,0,0,0,0,0,0,0,0,0,0,0,0,0,0,0,0,0,0,0,0,0,0,0,0,0,0,0,0,0,0,0,0,0,0,0,0.0932,0.0932,0,0.0951,0.0952,0.0952,0.0942,0.0942,0.0941,0.0941,0.0896,0.0895,0.0895,0,0,0,0,0,0,0,0,0,0,0,0,0,0.0875,0.0876,0.0932,0.0933,0.0933,0.0951,0.0952,0.0952,0.0942,0.0942,0.0941,0.0941,0.0897,0.0896,0.0895,0,0,0,0,0,0,0,0,0,0,0,0,0,0.0896,0.0876,0.0932,0.0931,0.0931,0.0951,0.0952,0.0952,0.0942,0.0941,0.0941,0.094,0.0897,0.0896,0.0894,0.0899,0,0,0.0891,0.089,0,0,0,0,0,0,0,0,0.0895,0.0898,0.0931,0.0931,0.0932,0.0945,0.0915,0.0931,0.0942,0.0937,0.0941,0.094,0.0908,0.0906,0.091,0.0896,0.0895,0.0891,0.089,0.0889,0.0889,0,0,0,0,0,0,0,0.0893,0.0897,0.0938,0.0931,0.0932,0.0926,0.0928,0.0918,0.0923,0.0937,0.0937,0.0941,0.0907,0.0911,0.0908,0.0894,0.0891,0.089,0.0889,0.0888,0.0915,0.0916,0,0,0,0,0,0,0.0895,0.0896,0.0938,0.0939,0.0913,0.0927,0.093,0.094,0.0925,0.0923,0.0942,0.0941,0.0913,0.091,0.0907,0.095,0.0889,0.0888,0.0887,0.0913,0.0915,0.0917,0,0,0,0,0,0,0.0894,0.0899,0.0937,0.0918,0.0923,0.0929,0.0941,0.0941,0.0941,0.0929,0.0925,0.0941,0.0913,0.0908,0.0913,0.0946,0.0888,0.0886,0.0912,0.0914,0.0916,0.101,0,0,0,0,0,0,0.0892,0.0899,0.0905,0.0919,0.0924,0.0953,0.0941,0.0942,0.0945,0.0944,0.0927,0.0923,0.0912,0.0915,0.0912,0.0943,0.0886,0.091,0.0913,0.0915,0.1005,0.1015,0.1024,0,0,0,0,0,0.089,0.09,0.0905,0.091,0.0933,0.0953,0.0956,0.0956,0.0946,0.0952,0.0949,0.0923,0.093,0.0916,0.0911,0.0943,0.0908,0.0912,0.0915,0.1001,0.1013,0.1024,0,0,0,0,0,0,0.0878,0.0901,0.0906,0.0923,0.0939,0.0952,0.0957,0.0957,0.096,0.0956,0.0939,0.0935,0.0953,0.0932,0.0917,0.0959,0.0916,0.0918,0.0983,0.0994,0.1003,0.1016,0.0884,0,0,0,0,0,0.088,0.0892,0.0915,0.0927,0.0937,0.0946,0.0953,0.0957,0.0963,0.0963,0.0957,0.0953,0.0965,0.0965,0.0964,0.0982,0.0981,0.1001,0.101,0.1018,0.1026,0.1047,0.106,0.0927,0.0927,0.0927,0,0,0.0877,0.0891,0.0898,0.0925,0.0936,0.0965,0.0948,0.0963,0.099,0.0957,0.0983,0.098,0.0976,0.1007,0.1012,0.0992,0.1062,0.1022,0.1029,0.1033,0.1052,0.1065,0.1076,0.0929,0.0929,0.0929,0,0,0.0887,0.0894,0.0914,0.0933,0.0957,0.097,0.0975,0.0994,0.1004,0.1031,0.1024,0.1045,0.1045,0.1067,0.1073,0.113,0.1108,0.1124,0.1185,0.1206,0.1217,0.1227,0.1273,0.1286,0.1131,0.1131,0.1132,0,0.088,0.0919,0.0921,0.0952,0.0976,0.0975,0.1013,0.1026,0.1046,0.1066,0.1047,0.1086,0.1082,0.1137,0.1168,0.1153,0.1164,0.1144,0.1219,0.1229,0.1237,0.1282,0.1295,0.1136,0.1136,0.1135,0.1135,0,0.092,0.0948,0.0961,0.1005,0.1028,0.1056,0.1085,0.1104,0.1113,0.1132,0.1176,0.118,0.1208,0.1215,0.1213,0.1278,0.1269,0.1228,0.1193,0.1256,0.1299,0.1311,0.1143,0.1142,0.114,0.1139,0,0,0.0921,0.0977,0.0988,0.1018,0.1062,0.1088,0.1134,0.1185,0.122,0.1237,0.1293,0.1325,0.1325,0.1334,0.1332,0.1356,0.1443,0.1327,0.1325,0.1378,0.1514,0.1542,0.1558,0.1411,0.1412,0.1414,0.1532,0,0.0957,0.1029,0.1049,0.1115,0.1156,0.1174,0.122,0.1262,0.1289,0.1338,0.1356,0.1401,0.1371,0.1398,0.142,0.1446,0.1474,0.1416,0.144,0.1442,0.1462,0.1572,0.1439,0.1535,0.1544,0.1546,0.1547,0,0.1008,0.1051,0.1135,0.1184,0.1204,0.1239,0.1314,0.1353,0.1414,0.1437,0.1479,0.149,0.1567,0.1505,0.1582,0.1548,0.1541,0.154,0.1544,0.1542,0.1492,0.1466,0.1556,0.1567,0.1565,0.1564,0.1562,0,0.1032,0.1107,0.118,0.1205,0.1269,0.1302,0.1326,0.1388,0.1429,0.1507,0.155,0.1611,0.1656,0.1668,0.17,0.1644,0.177,0.1685,0.1699,0.1701,0.1579,0.1568,0.171,0.1709,0.1709,0.1709,0.1708,0,0.1065,0.1125,0.1199,0.123,0.1309,0.1337,0.1404,0.1438,0.1499,0.1561,0.1603,0.1662,0.1692,0.1765,0.1759,0.1814,0.1824,0.1747,0.1743,0.1613,0.1604,0.1603,0.1589,0.1713,0.1712,0.1711,0.1711,0,0.1074,0.1145,0.1212,0.1283,0.1322,0.1369,0.1429,0.1453,0.1532,0.1618,0.1654,0.1736,0.1833,0.1878,0.1926,0.1902,0.194,0.1934,0.1808,0.1787,0.1834,0.1824,0.1964,0.1967,0.1969,0.197,0.1971,0,0.1087,0.1133,0.1225,0.1257,0.1287,0.136,0.1392,0.1471,0.1503,0.1658,0.1693,0.1823,0.1894,0.2022,0.2017,0.2059,0.2017,0.1939,0.1795,0.1884,0.1866,0.1852,0.1839,0.1678,0.1677,0.1676,0.1675,0,0.1071,0.1108,0.1124,0.1197,0.1252,0.1319,0.1371,0.1419,0.1526,0.1616,0.1736,0.1819,0.1954,0.1952,0.2026,0.2001,0.1933,0.192,0.2061,0.1641,0.1625,0.1603,0.1598,0.1667,0.1667,0.1668,0.1669,0.1669,0.1019,0.1014,0.1031,0.1097,0.1172,0.124,0.1268,0.1333,0.1426,0.1547,0.1673,0.1757,0.1828,0.1859,0.1863,0.1855,0.192,0.1813,0.1811,0.1811,0.1763,0.1752,0.181,0.1812,0.1813,0.1814,0.1815,0,0.0887,0.09,0.0928,0.1,0.1037,0.114,0.1225,0.124,0.1327,0.1463,0.1568,0.1505,0.1569,0.1644,0.163,0.1663,0.1581,0.1597,0.1465,0.1477,0.1487,0.1416,0.1374,0.1373,0.1371,0.137,0,0,0.0813,0.0778,0.0799,0.0857,0.0932,0.1005,0.1056,0.1106,0.1189,0.123,0.1292,0.1458,0.1583,0.1433,0.1453,0.1419,0.1418,0.137,0.1727,0.1581,0.1588,0.1625,0.1534,0,0,0,0,0]},{"header":{"parameterUnit":"m.s-1","parameterCategory":2,"la1":30.2991,"la2":30.254,"lo1":-89.0895,"lo2":-89.0444,"dy":0.0017,"dx":0.0017,"nx":28,"ny":28,"refTime":"2023-08-01T21:00:00:Z","depth":"2","parameterNumber":3,"parameterNumberName":"V-component_of_CURRENTS"},"data":[0,0,0,0,0,0,0,0,0,0,0,0,0,0,0,0,0,0,0,0,0,0,0,0,0,0,0,0,0,0,0,0,0,0,0,0,0,0,0,0,0,0,0,0,0,0,0,0,0,0,0,0,0,0,0,0,0,0,-0.0956,-0.0956,0,-0.0965,-0.0965,-0.0965,-0.0984,-0.0985,-0.0985,-0.0986,-0.0955,-0.0954,-0.0952,0,0,0,0,0,0,0,0,0,0,0,0,0,-0.0823,-0.0826,-0.0956,-0.0956,-0.0957,-0.0965,-0.0965,-0.0965,-0.0984,-0.0985,-0.0985,-0.0986,-0.0955,-0.0954,-0.0952,0,0,0,0,0,0,0,0,0,0,0,0,0,-0.0861,-0.0827,-0.0956,-0.0968,-0.0969,-0.0965,-0.0965,-0.0965,-0.0984,-0.0985,-0.0986,-0.0986,-0.0956,-0.0954,-0.0952,-0.0925,0,0,-0.0946,-0.0945,0,0,0,0,0,0,0,0,-0.0859,-0.0865,-0.0966,-0.0967,-0.0969,-0.0975,-0.0907,-0.095,-0.0984,-0.0977,-0.0986,-0.0987,-0.0958,-0.0956,-0.0955,-0.0923,-0.0922,-0.0946,-0.0945,-0.0944,-0.0943,0,0,0,0,0,0,0,-0.0856,-0.0864,-0.0958,-0.0966,-0.0968,-0.0927,-0.0935,-0.0914,-0.0962,-0.0978,-0.098,-0.0982,-0.0959,-0.0957,-0.0954,-0.0921,-0.0946,-0.0944,-0.0943,-0.0942,-0.0873,-0.0872,0,0,0,0,0,0,-0.0864,-0.0863,-0.0958,-0.0959,-0.0916,-0.093,-0.0938,-0.0971,-0.0963,-0.0963,-0.0982,-0.0983,-0.096,-0.0956,-0.0953,-0.0923,-0.0944,-0.0942,-0.0941,-0.0874,-0.0873,-0.0872,0,0,0,0,0,0,-0.0862,-0.0874,-0.0958,-0.0909,-0.0918,-0.0933,-0.0969,-0.0971,-0.097,-0.0966,-0.0966,-0.0979,-0.096,-0.0956,-0.0936,-0.0922,-0.0941,-0.0939,-0.0874,-0.0873,-0.0872,-0.086,0,0,0,0,0,0,-0.0859,-0.0874,-0.0896,-0.0912,-0.0921,-0.0948,-0.0969,-0.0971,-0.0972,-0.0974,-0.0963,-0.0962,-0.096,-0.0939,-0.0934,-0.0919,-0.0938,-0.0875,-0.0874,-0.0873,-0.0861,-0.0859,-0.0857,0,0,0,0,0,-0.0854,-0.0871,-0.0898,-0.0909,-0.0955,-0.0948,-0.0948,-0.0958,-0.0971,-0.0962,-0.0962,-0.0962,-0.0928,-0.0937,-0.0931,-0.0916,-0.0876,-0.0874,-0.0873,-0.0862,-0.0859,-0.0857,0,0,0,0,0,0,-0.0795,-0.0875,-0.0905,-0.094,-0.0945,-0.0951,-0.0942,-0.0954,-0.0948,-0.0949,-0.0951,-0.0948,-0.0928,-0.092,-0.093,-0.0892,-0.0902,-0.0899,-0.0896,-0.0893,-0.089,-0.0913,-0.0936,0,0,0,0,0,-0.0804,-0.0862,-0.0893,-0.0919,-0.0919,-0.0933,-0.0931,-0.094,-0.0938,-0.0937,-0.0933,-0.0926,-0.0915,-0.0904,-0.0893,-0.0865,-0.0894,-0.0852,-0.085,-0.0848,-0.0862,-0.091,-0.0914,-0.0867,-0.0867,-0.0867,0,0,-0.0769,-0.0838,-0.0855,-0.0913,-0.0918,-0.0912,-0.0933,-0.0925,-0.0924,-0.0932,-0.0919,-0.0916,-0.0907,-0.0886,-0.0874,-0.0877,-0.087,-0.0846,-0.0845,-0.086,-0.0909,-0.0914,-0.0919,-0.0866,-0.0866,-0.0866,0,0,-0.0744,-0.0805,-0.0839,-0.085,-0.088,-0.0888,-0.0886,-0.0892,-0.0897,-0.0885,-0.0896,-0.0891,-0.0863,-0.0865,-0.0861,-0.0835,-0.086,-0.0821,-0.0822,-0.0868,-0.0873,-0.0878,-0.0901,-0.0908,-0.0816,-0.0816,-0.0816,0,-0.0704,-0.0773,-0.0829,-0.0854,-0.0857,-0.0877,-0.0868,-0.087,-0.0871,-0.088,-0.0876,-0.0871,-0.0858,-0.0855,-0.0846,-0.0832,-0.0859,-0.0834,-0.0868,-0.0873,-0.0879,-0.0901,-0.0909,-0.0815,-0.0815,-0.0815,-0.0815,0,-0.07,-0.0744,-0.0747,-0.0813,-0.0813,-0.0804,-0.0819,-0.082,-0.0831,-0.0846,-0.0849,-0.0843,-0.0848,-0.0832,-0.0829,-0.0851,-0.0857,-0.0865,-0.0881,-0.0883,-0.0906,-0.0914,-0.0814,-0.0814,-0.0815,-0.0815,0,0,-0.0626,-0.0733,-0.0724,-0.0761,-0.0795,-0.0791,-0.079,-0.0805,-0.0819,-0.0821,-0.084,-0.0824,-0.0844,-0.0842,-0.0839,-0.0868,-0.0912,-0.088,-0.0883,-0.0913,-0.1005,-0.1006,-0.1015,-0.0934,-0.0936,-0.0938,-0.0999,0,-0.06,-0.0651,-0.0704,-0.0708,-0.0727,-0.0754,-0.0756,-0.0774,-0.0792,-0.0812,-0.0831,-0.0832,-0.084,-0.0834,-0.0875,-0.0899,-0.0938,-0.0894,-0.099,-0.0993,-0.1003,-0.1027,-0.0893,-0.0938,-0.1008,-0.101,-0.1011,0,-0.0565,-0.0628,-0.0624,-0.071,-0.0711,-0.0706,-0.0731,-0.0741,-0.0781,-0.0795,-0.0826,-0.084,-0.0868,-0.0875,-0.0959,-0.0933,-0.0978,-0.1003,-0.1006,-0.1024,-0.1011,-0.095,-0.0951,-0.1026,-0.1025,-0.1023,-0.1022,0,-0.0505,-0.0566,-0.0571,-0.0583,-0.0656,-0.066,-0.0698,-0.0732,-0.0739,-0.0783,-0.078,-0.0848,-0.0851,-0.0934,-0.0971,-0.0978,-0.1065,-0.108,-0.1128,-0.1127,-0.1041,-0.1031,-0.1167,-0.1167,-0.1167,-0.1166,-0.1166,0,-0.0492,-0.0498,-0.054,-0.0554,-0.0556,-0.0624,-0.0629,-0.0672,-0.0711,-0.0709,-0.0768,-0.0766,-0.0869,-0.0915,-0.0984,-0.1072,-0.108,-0.1144,-0.1155,-0.1029,-0.1017,-0.1118,-0.1112,-0.1169,-0.1168,-0.1168,-0.1167,0,-0.0473,-0.047,-0.0476,-0.0526,-0.0531,-0.053,-0.0586,-0.0612,-0.0638,-0.0633,-0.0633,-0.0707,-0.0788,-0.0876,-0.0995,-0.1066,-0.1153,-0.118,-0.1013,-0.1005,-0.1188,-0.118,-0.1277,-0.1278,-0.1278,-0.1279,-0.1279,0,-0.0477,-0.0476,-0.0449,-0.0429,-0.0457,-0.0474,-0.0499,-0.0551,-0.0572,-0.0582,-0.0581,-0.0645,-0.0663,-0.0842,-0.0956,-0.1082,-0.1161,-0.11,-0.1109,-0.1205,-0.1206,-0.1196,-0.1188,-0.0974,-0.0972,-0.097,-0.0968,0,-0.051,-0.0454,-0.0483,-0.0436,-0.0413,-0.0414,-0.0462,-0.044,-0.0478,-0.0435,-0.0414,-0.0414,-0.0569,-0.0654,-0.0852,-0.0937,-0.1076,-0.1076,-0.1217,-0.0975,-0.0927,-0.0925,-0.0925,-0.0953,-0.0955,-0.0956,-0.0957,-0.0957,-0.0497,-0.05,-0.0478,-0.044,-0.0408,-0.0364,-0.0338,-0.0347,-0.0283,-0.0178,-0.024,-0.0174,-0.0361,-0.0536,-0.0712,-0.0915,-0.0977,-0.1046,-0.1047,-0.1052,-0.1014,-0.0972,-0.0997,-0.0999,-0.1,-0.1002,-0.1003,0,-0.0513,-0.0518,-0.0504,-0.0407,-0.037,-0.0355,-0.0313,-0.0242,-0.0105,-0.0016,0.0079,0.0014,-0.0102,-0.0351,-0.0588,-0.0786,-0.0762,-0.0884,-0.08,-0.0812,-0.0824,-0.0774,-0.0694,-0.0694,-0.0694,-0.0694,0,0,-0.0506,-0.0485,-0.0479,-0.0362,-0.0321,-0.0212,-0.0153,-0.0017,0.0078,0.0235,0.0317,0.0354,0.0018,-0.0102,-0.0368,-0.0528,-0.0624,-0.055,-0.0768,-0.0647,-0.0656,-0.0882,-0.0815,0,0,0,0,0]}],[{"header":{"parameterUnit":"m.s-1","parameterCategory":2,"la1":30.2991,"la2":30.254,"lo1":-89.0895,"lo2":-89.0444,"dy":0.0017,"dx":0.0017,"nx":28,"ny":28,"refTime":"2023-08-01T21:00:00:Z","depth":"4","parameterNumber":2,"parameterNumberName":"U-component_of_CURRENTS"},"data":[0,0,0,0,0,0,0,0,0,0,0,0,0,0,0,0,0,0,0,0,0,0,0,0,0,0,0,0,0,0,0,0,0,0,0,0,0,0,0,0,0,0,0,0,0,0,0,0,0,0,0,0,0,0,0,0,0,0,0.0516,0.0517,0,0.055,0.055,0.055,0.0591,0.0592,0.0592,0.0593,0.0668,0.0669,0.0671,0,0,0,0,0,0,0,0,0,0,0,0,0,0.0479,0.0479,0.0516,0.0517,0.0517,0.055,0.055,0.055,0.0591,0.0592,0.0592,0.0593,0.0668,0.0669,0.0671,0,0,0,0,0,0,0,0,0,0,0,0,0,0.0501,0.0479,0.0516,0.0542,0.0545,0.055,0.055,0.055,0.059,0.0592,0.0593,0.0594,0.0667,0.0669,0.0671,0.0661,0,0,0.0677,0.0678,0,0,0,0,0,0,0,0,0.05,0.0502,0.0538,0.054,0.0543,0.0568,0.0564,0.059,0.059,0.0572,0.0593,0.0594,0.0638,0.0643,0.0645,0.0665,0.0668,0.0677,0.0679,0.0679,0.068,0,0,0,0,0,0,0,0.0498,0.0501,0.0528,0.0538,0.0542,0.0549,0.0554,0.0569,0.0599,0.0574,0.0577,0.0582,0.064,0.0642,0.0647,0.0669,0.0677,0.0679,0.068,0.0681,0.0754,0.0755,0,0,0,0,0,0,0.0495,0.0499,0.0527,0.053,0.0525,0.0549,0.0554,0.0558,0.0598,0.0605,0.0581,0.0584,0.0639,0.0644,0.065,0.0709,0.0679,0.0681,0.0682,0.0753,0.0754,0.0755,0,0,0,0,0,0,0.0494,0.0497,0.0526,0.0516,0.0521,0.0549,0.0553,0.0558,0.059,0.0603,0.0611,0.0611,0.064,0.0647,0.0693,0.071,0.0682,0.0684,0.0752,0.0754,0.0755,0.0784,0,0,0,0,0,0,0.0493,0.0497,0.0506,0.0516,0.0521,0.0546,0.0552,0.0558,0.059,0.0594,0.063,0.0637,0.0641,0.069,0.0695,0.0712,0.0685,0.0751,0.0753,0.0754,0.0782,0.0786,0.0789,0,0,0,0,0,0.0492,0.0494,0.0506,0.051,0.053,0.0546,0.055,0.0572,0.059,0.0605,0.0637,0.0637,0.0702,0.0693,0.0698,0.0716,0.0751,0.0753,0.0754,0.078,0.0785,0.0789,0,0,0,0,0,0,0.048,0.0499,0.0512,0.0521,0.0542,0.0554,0.0569,0.0587,0.0621,0.064,0.0652,0.0661,0.0703,0.0707,0.0696,0.074,0.0724,0.0727,0.0742,0.0747,0.075,0.0764,0.0687,0,0,0,0,0,0.0482,0.0492,0.0512,0.0522,0.0535,0.0559,0.0572,0.0595,0.0621,0.0638,0.0667,0.0693,0.0707,0.0728,0.0743,0.0774,0.0786,0.0787,0.079,0.0793,0.0808,0.0841,0.0849,0.0761,0.0761,0.0761,0,0,0.0476,0.0492,0.0496,0.0521,0.054,0.0564,0.057,0.0603,0.063,0.0641,0.0696,0.071,0.0718,0.0749,0.0768,0.0762,0.0824,0.0795,0.0798,0.0811,0.0843,0.0852,0.086,0.0762,0.0762,0.0761,0,0,0.0473,0.0492,0.0503,0.0527,0.0566,0.0583,0.06,0.0638,0.0663,0.0708,0.072,0.0753,0.0783,0.0793,0.0797,0.0832,0.0839,0.0834,0.087,0.0901,0.0909,0.0916,0.0938,0.0947,0.0839,0.0839,0.0839,0,0.0469,0.0488,0.0509,0.0534,0.0557,0.0596,0.0622,0.0648,0.0701,0.0727,0.0734,0.0791,0.08,0.0831,0.0843,0.0841,0.0861,0.0851,0.0907,0.0914,0.0921,0.0942,0.0951,0.0841,0.0841,0.084,0.084,0,0.0475,0.0502,0.0513,0.0558,0.0586,0.0616,0.0658,0.0701,0.0739,0.0766,0.0821,0.0838,0.0875,0.0873,0.087,0.0919,0.0918,0.0904,0.0896,0.0931,0.0951,0.096,0.0843,0.0842,0.0842,0.0842,0,0,0.0429,0.0501,0.0506,0.0538,0.0606,0.0625,0.0682,0.0733,0.0777,0.0827,0.0878,0.0902,0.0929,0.0937,0.0941,0.0968,0.1024,0.0965,0.0966,0.0989,0.1098,0.1019,0.1021,0.1026,0.1028,0.103,0.1092,0,0.0429,0.0471,0.0513,0.0565,0.0593,0.0656,0.0698,0.0758,0.0813,0.0875,0.0906,0.0954,0.0946,0.0974,0.1002,0.1018,0.1051,0.1009,0.106,0.1062,0.0989,0.103,0.1036,0.1098,0.1101,0.1102,0.1103,0,0.0418,0.0451,0.0488,0.0575,0.0593,0.0634,0.0721,0.0771,0.0863,0.0909,0.0977,0.101,0.1066,0.105,0.1114,0.1092,0.1109,0.1115,0.1117,0.1043,0.1,0.1057,0.112,0.1118,0.1117,0.1116,0.1115,0,0.0363,0.0439,0.0463,0.049,0.0581,0.0622,0.0687,0.0783,0.0831,0.0947,0.1002,0.1069,0.112,0.1149,0.1178,0.1157,0.1244,0.1207,0.1152,0.1147,0.1186,0.1178,0.1262,0.1262,0.1262,0.1262,0.1262,0,0.0344,0.0375,0.0443,0.0458,0.0496,0.0595,0.0662,0.0738,0.0854,0.0918,0.1023,0.1073,0.1154,0.121,0.1212,0.1217,0.1275,0.1174,0.1163,0.1195,0.1187,0.1192,0.1183,0.1264,0.1264,0.1263,0.1263,0,0.0302,0.0336,0.0363,0.0444,0.0467,0.0503,0.0635,0.0686,0.0824,0.0917,0.0959,0.1096,0.116,0.1225,0.1281,0.1259,0.1264,0.1254,0.1301,0.129,0.1135,0.1127,0.1185,0.1183,0.1181,0.118,0.1179,0,0.0291,0.029,0.0324,0.0323,0.0365,0.044,0.0479,0.0632,0.0699,0.0905,0.0931,0.1063,0.1135,0.1163,0.1224,0.1248,0.1232,0.1253,0.1178,0.1147,0.1131,0.1126,0.112,0.1176,0.1175,0.1175,0.1174,0,0.026,0.0252,0.0273,0.0263,0.0285,0.0317,0.0415,0.0457,0.0642,0.0767,0.0887,0.0966,0.105,0.1095,0.1154,0.1154,0.1243,0.1233,0.1236,0.1165,0.1135,0.1121,0.1117,0.1168,0.1169,0.1169,0.117,0,0.0219,0.0216,0.0213,0.0216,0.0214,0.0215,0.0277,0.0381,0.0467,0.0717,0.0736,0.0893,0.1014,0.1046,0.1076,0.11,0.1065,0.1042,0.1053,0.1061,0.0994,0.0937,0.0913,0,0,0,0,0,0.018,0.0183,0.0176,0.0164,0.0162,0.0169,0.0236,0.0313,0.0488,0.0537,0.0654,0.0726,0.0833,0.0896,0.089,0.0995,0.105,0.0986,0.1022,0.1133,0.114,0.1074,0,0,0,0,0,0,0.0152,0.0147,0.0163,0.0124,0.0115,0.0114,0.0147,0.0258,0.0304,0.0486,0.0523,0.0681,0.0756,0.0822,0.0876,0.0898,0.0907,0.1079,0.1077,0.1129,0.1135,0.1141,0.1076,0,0,0,0,0]},{"header":{"parameterUnit":"m.s-1","parameterCategory":2,"la1":30.2991,"la2":30.254,"lo1":-89.0895,"lo2":-89.0444,"dy":0.0017,"dx":0.0017,"nx":28,"ny":28,"refTime":"2023-08-01T21:00:00:Z","depth":"4","parameterNumber":3,"parameterNumberName":"V-component_of_CURRENTS"},"data":[0,0,0,0,0,0,0,0,0,0,0,0,0,0,0,0,0,0,0,0,0,0,0,0,0,0,0,0,0,0,0,0,0,0,0,0,0,0,0,0,0,0,0,0,0,0,0,0,0,0,0,0,0,0,0,0,0,0,-0.0153,-0.0153,0,-0.0147,-0.0147,-0.0147,-0.0203,-0.0205,-0.0206,-0.0207,-0.0298,-0.0299,-0.03,0,0,0,0,0,0,0,0,0,0,0,0,0,-0.0196,-0.0195,-0.0153,-0.0153,-0.0153,-0.0147,-0.0147,-0.0147,-0.0203,-0.0205,-0.0206,-0.0208,-0.0297,-0.0299,-0.03,0,0,0,0,0,0,0,0,0,0,0,0,0,-0.0183,-0.0195,-0.0153,-0.018,-0.0182,-0.0147,-0.0147,-0.0147,-0.0202,-0.0205,-0.0207,-0.0209,-0.0297,-0.0298,-0.03,-0.0263,0,0,-0.0304,-0.0305,0,0,0,0,0,0,0,0,-0.0184,-0.0181,-0.0176,-0.0178,-0.0181,-0.0178,-0.0196,-0.0191,-0.0202,-0.0195,-0.0208,-0.021,-0.0265,-0.0269,-0.0262,-0.0268,-0.0272,-0.0305,-0.0305,-0.0306,-0.0306,0,0,0,0,0,0,0,-0.0185,-0.0182,-0.0151,-0.0176,-0.0179,-0.0186,-0.0187,-0.0194,-0.0219,-0.0196,-0.02,-0.0198,-0.0267,-0.026,-0.0265,-0.0273,-0.0304,-0.0306,-0.0307,-0.0307,-0.035,-0.035,0,0,0,0,0,0,-0.0183,-0.0182,-0.0152,-0.0151,-0.0188,-0.0184,-0.0185,-0.0177,-0.0217,-0.0225,-0.0196,-0.02,-0.0256,-0.0263,-0.0268,-0.0312,-0.0306,-0.0307,-0.0308,-0.0349,-0.035,-0.035,0,0,0,0,0,0,-0.0184,-0.018,-0.0152,-0.0167,-0.0164,-0.0181,-0.0171,-0.0175,-0.0192,-0.0216,-0.0226,-0.0212,-0.0258,-0.0266,-0.0297,-0.0314,-0.0308,-0.0309,-0.0349,-0.035,-0.035,-0.0347,0,0,0,0,0,0,-0.0185,-0.018,-0.0177,-0.0167,-0.0163,-0.014,-0.0169,-0.0174,-0.0186,-0.0193,-0.0232,-0.0241,-0.0261,-0.0295,-0.0299,-0.0315,-0.0311,-0.0349,-0.0349,-0.035,-0.0347,-0.0347,-0.0347,0,0,0,0,0,-0.0186,-0.0171,-0.0176,-0.0173,-0.0157,-0.0139,-0.0138,-0.0158,-0.0185,-0.0184,-0.0221,-0.0242,-0.0301,-0.0296,-0.03,-0.0318,-0.0349,-0.0349,-0.035,-0.0346,-0.0347,-0.0347,0,0,0,0,0,0,-0.0193,-0.0175,-0.0181,-0.0163,-0.0157,-0.0149,-0.0151,-0.0162,-0.0186,-0.0209,-0.0238,-0.0248,-0.0282,-0.0294,-0.0288,-0.0331,-0.033,-0.0332,-0.0326,-0.0327,-0.0327,-0.034,-0.0312,0,0,0,0,0,-0.0189,-0.0176,-0.0161,-0.0151,-0.0148,-0.0151,-0.015,-0.0164,-0.0179,-0.0193,-0.0224,-0.0259,-0.028,-0.0301,-0.0319,-0.0336,-0.0358,-0.0352,-0.0353,-0.0353,-0.0367,-0.0407,-0.0413,-0.0352,-0.0352,-0.0352,0,0,-0.0191,-0.0179,-0.0173,-0.0152,-0.0152,-0.0148,-0.0158,-0.0161,-0.0174,-0.0198,-0.024,-0.0259,-0.0283,-0.0309,-0.0326,-0.0328,-0.0379,-0.0354,-0.0354,-0.0368,-0.0408,-0.0414,-0.042,-0.0352,-0.0352,-0.0352,0,0,-0.0186,-0.0176,-0.0166,-0.0157,-0.0154,-0.0155,-0.0159,-0.0164,-0.0186,-0.0206,-0.0238,-0.027,-0.0297,-0.0325,-0.0339,-0.035,-0.0376,-0.0355,-0.0374,-0.0412,-0.0418,-0.0423,-0.0447,-0.0454,-0.036,-0.036,-0.036,0,-0.0197,-0.0177,-0.0161,-0.0152,-0.0153,-0.0161,-0.0162,-0.0171,-0.0194,-0.0213,-0.0227,-0.0282,-0.0306,-0.0342,-0.0354,-0.0353,-0.0374,-0.0369,-0.0414,-0.0419,-0.0425,-0.0448,-0.0456,-0.0359,-0.0359,-0.0359,-0.0359,0,-0.0179,-0.0174,-0.0169,-0.0163,-0.0158,-0.016,-0.0167,-0.0184,-0.0212,-0.0227,-0.0271,-0.0299,-0.0339,-0.0345,-0.0356,-0.0405,-0.0406,-0.0405,-0.0413,-0.0431,-0.0454,-0.0463,-0.0359,-0.0359,-0.0359,-0.0359,0,0,-0.0196,-0.0164,-0.0169,-0.0169,-0.0169,-0.0163,-0.0185,-0.0201,-0.0223,-0.0256,-0.0289,-0.0331,-0.0356,-0.0375,-0.0394,-0.043,-0.0483,-0.044,-0.0442,-0.0465,-0.0563,-0.047,-0.047,-0.0492,-0.0494,-0.0495,-0.0559,0,-0.0202,-0.0182,-0.0169,-0.0174,-0.0172,-0.018,-0.0191,-0.021,-0.0236,-0.0268,-0.0309,-0.0348,-0.0364,-0.039,-0.0429,-0.0472,-0.0508,-0.0465,-0.0542,-0.0544,-0.0461,-0.0478,-0.0501,-0.0566,-0.0568,-0.0569,-0.057,0,-0.021,-0.019,-0.0193,-0.018,-0.018,-0.0192,-0.0216,-0.0225,-0.0263,-0.0283,-0.0331,-0.0361,-0.043,-0.0433,-0.053,-0.0503,-0.0541,-0.0567,-0.057,-0.0494,-0.0467,-0.0548,-0.0586,-0.0585,-0.0584,-0.0583,-0.0582,0,-0.0243,-0.0219,-0.0225,-0.0222,-0.0205,-0.0224,-0.0226,-0.0248,-0.0249,-0.0313,-0.0316,-0.04,-0.0435,-0.051,-0.0557,-0.0563,-0.0638,-0.0652,-0.0601,-0.0595,-0.0663,-0.0656,-0.0721,-0.0721,-0.0721,-0.0721,-0.072,0,-0.0272,-0.0275,-0.0245,-0.0251,-0.0257,-0.0244,-0.0262,-0.0275,-0.0281,-0.0265,-0.0338,-0.0324,-0.0457,-0.0499,-0.0564,-0.0594,-0.0649,-0.0612,-0.0609,-0.0656,-0.0649,-0.0668,-0.0661,-0.0723,-0.0722,-0.0722,-0.0721,0,-0.0319,-0.0307,-0.0303,-0.0281,-0.0283,-0.0292,-0.0269,-0.0258,-0.0273,-0.0255,-0.0274,-0.0297,-0.0335,-0.043,-0.0534,-0.0576,-0.0633,-0.0625,-0.0655,-0.0651,-0.0571,-0.0564,-0.0612,-0.0609,-0.0607,-0.0605,-0.0603,0,-0.0333,-0.0343,-0.0324,-0.0308,-0.0308,-0.0305,-0.0289,-0.0284,-0.0249,-0.0201,-0.0174,-0.0202,-0.0221,-0.0296,-0.0402,-0.0528,-0.0529,-0.0594,-0.0609,-0.057,-0.0563,-0.0558,-0.0554,-0.06,-0.0599,-0.0599,-0.0598,0,-0.0345,-0.0355,-0.0328,-0.0301,-0.0295,-0.0257,-0.0226,-0.02,-0.0158,-0.0174,-0.0081,-0.0112,-0.0126,-0.0221,-0.0311,-0.0396,-0.0585,-0.0571,-0.0577,-0.0592,-0.0556,-0.055,-0.0548,-0.059,-0.0591,-0.0592,-0.0592,0,-0.034,-0.0323,-0.029,-0.0268,-0.0236,-0.018,-0.0184,-0.0107,-0.0082,-0.0033,0.0009,-0.0013,-0.0054,-0.0144,-0.0214,-0.0302,-0.0336,-0.0408,-0.0423,-0.0434,-0.0354,-0.028,-0.0232,0,0,0,0,0,-0.0329,-0.0291,-0.0242,-0.0201,-0.0155,-0.0152,-0.0099,-0.009,-0.0072,0.0002,0.0011,0.0014,-0.005,-0.0073,-0.0141,-0.0188,-0.0368,-0.0274,-0.0463,-0.0546,-0.0555,-0.0482,0,0,0,0,0,0,-0.0305,-0.0264,-0.0229,-0.0133,-0.0101,-0.0053,-0.003,-0.002,0.0029,0.0037,0.0012,-0.0022,-0.0085,-0.0013,-0.0147,-0.0171,-0.0304,-0.0316,-0.0318,-0.0541,-0.0549,-0.0557,-0.0485,0,0,0,0,0]}]]